Location: Pulvis Stellarum Observatory
(41.6962°N, 71.4263°W)
Time: 20:41:49
(UTC-04:00)

Daily predictions for brighter satellites

Satellite Brightness Start Highest point End
(mag) Time Altitude Azimuth Time Altitude Azimuth Time Altitude Azimuth
BREEZE-M DEB (TANK) 3.8 20:37:18 10° NW 20:39:35 28° NNE 20:45:03 10° E
USA 215 3.9 20:33:53 10° ESE 20:40:06 47° NNE 20:46:20 10° NW
SJ-11-01 4.4 20:36:16 10° SSE 20:40:55 62° ENE 20:45:34 10° N
NOSS 3-2 (C) 3.4 20:39:50 10° SSW 20:45:47 75° ESE 20:52:20 10° NE
Cosmos 2369 Rocket 2.7 20:41:37 10° S 20:46:43 37° ESE 20:51:54 10° NE
Okean 1-7 4.2 20:44:42 10° NNE 20:48:26 26° ENE 20:52:07 10° SE
Lacrosse 5 rocket 1.9 20:48:30 10° S 20:51:32 27° SE 20:54:38 10° ENE
Cosmos 1346 Rocket 2.8 20:51:26 10° N 20:55:23 68° E 20:59:22 10° SSE
Cosmos 1939 Rocket 3.0 20:52:15 10° SSE 20:56:24 86° WSW 21:00:34 10° NNW
Cosmos 1933 4.2 20:52:43 10° NNW 20:56:37 50° W 21:00:30 10° S
Cosmos 1703 Rocket 3.9 20:52:31 10° N 20:56:48 46° ENE 21:01:01 10° SSE
Cosmos 1470 Rocket 4.5 20:52:56 10° SSW 20:57:18 54° W 21:01:43 10° N
Envisat 3.4 20:53:19 10° S 20:58:21 66° WSW 21:03:26 10° NNW
Cosmos 1606 4.1 20:56:39 10° NNE 20:59:40 22° ENE 21:02:16 12° ESE
Cosmos 1898 Rocket 4.5 20:56:25 10° SW 21:01:35 54° WNW 21:06:49 10° N
CENTAUR R/B 3.0 20:58:52 10° S 21:04:11 35° ESE 21:10:07 10° NE
Cosmos 990 Rocket 4.2 20:59:22 10° SSW 21:04:33 80° WNW 21:09:49 10° NNE
ISS -3.8 21:06:07 10° SW 21:09:18 56° SE 21:12:29 10° ENE
SAR-Lupe-4 3.6 21:07:36 10° SSE 21:11:03 64° ENE 21:14:37 10° N
Cosmos 1125 Rocket 4.1 21:07:06 10° SSE 21:11:51 36° ESE 21:16:37 10° NE
ATLAS 5 CENTAUR R/B 3.3 21:07:08 10° NNW 21:12:33 36° NE 21:17:56 12° ESE
Terra 4.0 21:11:59 10° E 21:13:43 12° ENE 21:15:27 10° NE
Cosmos 1900 4.5 21:09:35 10° NNW 21:14:48 85° WSW 21:19:24 13° SSE
Cosmos 1869 Rocket 3.6 21:11:41 10° S 21:15:55 57° E 21:20:12 10° NNE
YAOGAN 6 2.9 21:13:29 10° S 21:17:11 68° W 21:20:53 10° NNW
MetOp-B 4.4 21:15:14 13° SE 21:19:56 54° ENE 21:25:09 10° N
SPOT 5 3.7 21:19:28 15° SE 21:23:31 42° ENE 21:28:29 10° N
Tiangong 2 1.7 21:20:37 10° W 21:23:42 44° SSW 21:25:25 22° SE
Aureole 3 2.6 21:22:34 12° S 21:25:20 57° E 21:28:16 10° NNE
Cosmos 2221 Rocket 3.6 21:22:20 10° N 21:26:47 70° E 21:30:27 15° SSE
Meteor 2-3 Rocket 4.2 21:22:06 10° SSW 21:27:46 64° WNW 21:33:25 10° N
ARGOS 3.4 21:24:50 16° SE 21:29:02 54° ENE 21:34:16 10° N
GPS 2-04 Rocket1 3.4 21:26:10 10° WSW 21:29:27 31° S 21:30:50 23° SE
Cosmos 2084 3.1 21:26:11 10° NW 21:30:02 85° NE 21:32:31 22° SE
Helios 1B rocket 3.2 21:27:15 10° N 21:31:17 55° WNW 21:35:17 10° SSW
Cosmos 1782 2.8 21:27:35 10° N 21:31:34 62° E 21:34:14 20° SSE
SAR-Lupe-1 4.1 21:29:35 15° S 21:32:29 80° WSW 21:36:04 10° NNW
Cosmos 1634 Rocket 4.2 21:27:23 10° N 21:33:41 77° W 21:40:00 10° S
H-2A R/B 2.7 21:32:37 19° SE 21:36:07 42° ENE 21:41:08 10° N
CZ-4B DEB 4.1 21:37:46 10° SSW 21:40:23 32° W 21:43:04 10° NNW
Lacrosse 4 Rocket 2.4 21:37:55 10° NNW 21:42:08 37° NE 21:44:24 22° ESE
Cosmos 2344 3.8 21:35:01 10° S 21:42:17 48° ESE 21:50:07 10° NE
Cosmos 1408 2.5 21:42:05 15° S 21:45:03 82° E 21:48:49 10° N
Meteor 1-29 4.5 21:43:01 10° N 21:46:18 38° WNW 21:49:34 10° SW
Nadezhda 4 Rocket 4.5 21:43:21 20° SSE 21:47:10 41° E 21:52:54 10° NNE
Cosmos 1825 2.0 21:45:47 16° S 21:48:41 84° E 21:52:29 10° N
Cosmos 1862 3.6 21:48:46 28° SSE 21:50:27 47° E 21:54:17 10° NNE
Cosmos 158 Rocket 3.8 21:47:54 10° NNW 21:52:49 78° ENE 21:55:29 27° SSE
Shenzhou-11 Module 3.7 21:52:28 10° W 21:54:54 21° SSW 21:55:05 21° SSW
YAOGAN 11 4.1 21:52:44 26° SSE 21:55:17 75° ENE 21:59:49 10° N
H-2A R/B 3.7 22:00:01 17° E 22:00:56 18° ENE 22:03:45 10° NNE
ERS-1 Rocket 3.9 22:03:26 13° SSW 22:07:39 43° W 22:12:27 10° NNW
COSMOS 2455 3.8 22:01:53 10° SW 22:07:41 49° NW 22:13:31 10° NNE
Cosmos 2279 Rocket 4.2 22:02:31 10° NNW 22:08:45 70° W 22:13:33 18° S
Cosmos 1943 Rocket 2.3 22:07:04 10° SSW 22:12:40 78° WNW 22:18:15 10° NNE
Cosmos 1048 Rocket 4.1 22:07:52 10° NNW 22:13:11 71° WSW 22:15:52 29° S
Okean 3 4.3 22:14:47 10° NNE 22:18:35 32° ENE 22:19:00 32° E
Cosmos 1908 Rocket 4.3 22:21:26 35° E 22:21:40 35° E 22:25:45 10° NNE
IGS 5A 3.9 22:21:58 42° ESE 22:22:39 46° ENE 22:26:38 10° N
DMSP B5D2-2 4.0 22:17:39 10° NNE 22:22:52 68° ESE 22:25:06 34° S
USA 215 3.5 22:19:36 29° SSE 22:22:59 59° SW 22:29:28 10° NW
Cosmos 1340 3.5 22:21:01 10° NNW 22:24:40 46° W 22:25:59 32° SW
Milstar 3 3.8 22:17:55 10° SW 22:26:21 30° S 22:27:31 29° SSE
Lacrosse 5 rocket 2.9 22:27:22 10° W 22:30:37 32° NW 22:33:59 10° NNE
Cosmos 2369 Rocket 3.9 22:25:40 10° WSW 22:30:45 33° WNW 22:35:54 10° N
Cosmos 2251 Rocket 4.0 22:27:17 10° N 22:32:21 47° ENE 22:33:44 38° ESE
Cosmos 1833 4.3 22:28:20 10° NNW 22:34:07 74° WSW 22:36:20 39° S
SPOT 1/Viking Rocket 3.9 22:31:52 31° S 22:34:15 60° W 22:39:26 10° NNW
Landsat 7 3.8 22:34:09 45° S 22:35:37 82° WSW 22:40:25 10° NNW
GEOS 3 Rocket 3.5 22:38:07 46° SE 22:39:44 83° NE 22:45:00 10° NW
Intercosmos 25 Rocket 4.4 22:32:34 10° N 22:40:12 77° W 22:42:06 40° S
deb Chang Zheng 4 4.3 22:36:35 10° NNE 22:40:20 37° E 22:40:20 37° E
ISS -1.4 22:43:11 10° W 22:45:57 25° NNW 22:48:43 10° NE
Meteor 1-27 Rocket 4.4 22:40:52 10° NNW 22:46:23 49° W 22:49:13 27° SSW
BREEZE-M DEB (TANK) 3.7 22:47:19 41° ESE 22:47:19 41° ESE 22:57:08 10° ENE
Cosmos 1733 Rocket 3.8 22:45:53 29° SW 22:47:43 48° WNW 22:51:55 10° N
Cosmos 1782 Rocket 4.3 22:49:18 39° ENE 22:49:18 39° ENE 22:52:58 10° NNE
Cosmos 2297 Rocket 4.1 22:45:02 10° N 22:48:54 18° NE 22:51:27 14° E
Sich 1 Rocket 3.5 22:50:27 68° ESE 22:50:39 69° E 22:55:03 10° NNE
Terra 1.7 22:49:48 58° S 22:50:45 83° WSW 22:55:32 10° NNW
ARGOS Delta rocket 4.4 22:48:29 10° NNE 22:52:08 37° ENE 22:52:08 37° ENE
CENTAUR R/B 3.6 22:48:45 10° WSW 22:54:37 46° NW 23:01:18 10° NNE
ATLAS 5 CENTAUR R/B 2.9 22:51:38 10° NW 22:57:28 49° WSW 22:59:28 37° SSW
Cosmos 1437 3.8 22:55:01 10° NNW 22:57:24 44° NW 22:57:24 44° NW
Cosmos 2026 Rocket 3.9 23:04:33 52° SSE 23:06:05 73° E 23:12:19 10° NNE
Meteor 2-20 Rocket 4.4 23:04:52 41° SSW 23:07:11 80° W 23:13:20 10° N
Cosmos 1975 Rocket 3.2 23:06:33 10° N 23:10:46 62° ENE 23:10:46 62° ENE
ALOS 2 4.5 23:11:51 19° ENE 23:11:53 19° ENE 23:14:58 10° NNE
Cosmos 1867 3.4 23:06:46 10° NW 23:12:14 82° WSW 23:12:56 68° S
Meteor 1-20 Rocket 4.2 23:12:31 59° SE 23:13:12 64° E 23:18:51 10° NNE
Cosmos 1656 Rocket 4.2 23:10:03 22° SW 23:13:27 55° WNW 23:18:53 10° NNE
H-2A R/B 3.8 23:13:15 19° SW 23:15:38 26° W 23:20:03 10° NW
Meteor 1-25 Rocket 4.2 23:15:22 62° SSE 23:16:17 76° E 23:22:07 10° NNE
Cosmos 1417 Rocket 4.5 23:13:27 10° N 23:19:43 70° E 23:20:55 57° SE
CZ-2C R/B 3.9 23:19:37 35° E 23:19:59 36° ENE 23:24:29 10° N
Lacrosse 4 Rocket 3.2 23:17:06 10° NW 23:20:37 23° WSW 23:20:44 23° WSW
Spot 4 3.7 23:22:13 78° SW 23:22:25 81° WSW 23:27:16 10° NNW
CZ-4 R/B 3.7 23:18:59 10° N 23:23:38 75° WNW 23:23:54 72° WSW
Cosmos 1428 Rocket 4.4 23:23:31 59° SSE 23:24:37 72° E 23:30:56 10° NNE
Cosmos 1378 Rocket 4.2 23:21:42 10° NNW 23:25:57 47° W 23:26:03 47° W
S3M 4.0 23:20:20 10° N 23:26:23 61° E 23:27:16 55° ESE
Meteor 1-14 Rocket 4.5 23:26:51 47° SW 23:28:31 68° WNW 23:34:20 10° N
Meteor 2-11 Rocket 4.3 23:24:17 10° N 23:30:28 79° E 23:31:23 65° SSE
ATLAS CENTAUR R/B 2.3 23:33:00 41° NNE 23:33:00 41° NNE 23:35:36 10° NNE
H-2A R/B 3.1 23:37:08 36° W 23:37:08 36° W 23:40:31 10° NNW
Cosmos 2227 Rocket 2.6 23:33:18 10° NNW 23:38:47 49° ENE 23:39:30 46° E
CZ-2C R/B 3.0 23:37:19 10° NNE 23:41:46 48° ENE 23:41:46 48° ENE
Cosmos 2219 3.5 23:37:34 10° NNW 23:43:10 55° WSW 23:43:36 54° SW
Cosmos 1553 Rocket 3.9 23:39:01 10° N 23:45:26 89° W 23:46:20 68° S
CZ-4B R/B 3.6 23:40:48 10° N 23:45:43 61° WNW 23:46:05 59° W
Cosmos 1812 4.2 23:43:22 10° NNW 23:46:07 33° WNW 23:46:07 33° WNW
APEX 4.3 23:42:39 10° NNW 23:46:09 44° N 23:46:09 44° N
Meteor 1-11 Rocket 4.2 23:48:53 49° E 23:48:53 49° E 23:54:35 10° NNE
Gbstr 26 Del rocket 4.0 23:45:03 10° NW 23:48:42 39° NNE 23:48:42 39° NNE
CZ-4C R/B 4.4 23:53:17 46° WNW 23:53:17 46° WNW 23:56:37 10° NNW
